This is the latest recevied weather packets stored in our database for station/object N9BID. If no packets are shown the sender has not sent any weather packets the latest 10 day(s).
| Time | Temp. | Humidity | Pressure | Rain* | Wind** | Luminosity | Snow |
|---|---|---|---|---|---|---|---|
| 1777971000 | 2.22° C | 77% | 996.6 hPa | 0 mm | - | 0 W/m² | - |
| 1777970698 | 2.22° C | 76% | 996.8 hPa | 0 mm | - | 0 W/m² | - |
| 1777970395 | 2.22° C | 76% | 996.5 hPa | 0 mm | - | 0 W/m² | - |
| 1777970092 | 2.22° C | 76% | 996.6 hPa | 0 mm | - | 0 W/m² | - |
| 1777969788 | 2.22° C | 76% | 996.5 hPa | 0 mm | - | 0 W/m² | - |
| 1777969484 | 2.22° C | 75% | 996.3 hPa | 0 mm | - | 0 W/m² | - |
| 1777969182 | 2.22° C | 75% | 996.4 hPa | 0 mm | - | 0 W/m² | - |
| 1777968878 | 2.22° C | 74% | 996.3 hPa | 0 mm | - | 0 W/m² | - |
| 1777968574 | 2.22° C | 74% | 996.1 hPa | 0 mm | - | 0 W/m² | - |
| 1777968271 | 2.22° C | 73% | 996.2 hPa | 0 mm | - | 0 W/m² | - |
| 1777967966 | 2.22° C | 74% | 996.3 hPa | 0 mm | - | 0 W/m² | - |
| 1777967663 | 2.22° C | 73% | 996.2 hPa | 0 mm | - | 0 W/m² | - |
| 1777967361 | 2.22° C | 74% | 996.4 hPa | 0 mm | - | 0 W/m² | - |
| 1777967058 | 1.67° C | 74% | 996.5 hPa | 0 mm | - | 0 W/m² | - |
| 1777966755 | 2.22° C | 74% | 996.2 hPa | 0 mm | - | 0 W/m² | - |
| 1777966453 | 2.78° C | 71% | 996.3 hPa | 0 mm | - | 0 W/m² | - |
| 1777966150 | 2.78° C | 71% | 996.3 hPa | 0 mm | - | 0 W/m² | - |
| 1777965846 | 2.78° C | 71% | 996.3 hPa | 0 mm | - | 0 W/m² | - |
| 1777965542 | 2.22° C | 73% | 996.4 hPa | 0 mm | - | 0 W/m² | - |
| 1777965238 | 1.67° C | 74% | 996.5 hPa | 0 mm | - | 0 W/m² | - |
| 1777964937 | 1.67° C | 76% | 996.2 hPa | 0 mm | - | 0 W/m² | - |
| 1777964633 | 1.67° C | 77% | 996.3 hPa | 0 mm | - | 0 W/m² | - |
| 1777964328 | 1.67° C | 76% | 996.3 hPa | 0 mm | - | 0 W/m² | - |
| 1777964025 | 2.22° C | 74% | 996.5 hPa | 0 mm | - | 0 W/m² | - |
| 1777963722 | 2.22° C | 74% | 996.7 hPa | 0 mm | - | 0 W/m² | - |
* Rain latest hour (hover to see other rain measurements)
** Current wind speed in m/s (hover to see current wind gust speed)